Dades meteomassalio
Diari Summary for Setembre 23, 2017 Units:  Metric    English   Both
« Previous Day
Next Day »
Diari Semanal Mensual Anual Personalitzat
  Maxima: Minima: Mijana:
Temperatura: -17.8 °C -12.2 °C -8.4 °C
Rosada: -17.8 °C -12.9 °C -10.9 °C
Humitat: Humidity % 39 % 77 %
Velocitat del vent: 0 km/h 0 km/h 4.2 km/h
Racha vent: 0 km/h - -
Vent:- - West
Pressio: 0 hPa 34544 hPa -
Pluja: 0 mm    
Historical Graphs
 
 
Tabular Data for Setembre 23, 2017
Time Temperature Dew Point Pressure Wind Wind Speed Wind Gust Humidity Rainfall Rate (Hourly) solar Conditions
-17.8 °C -17.8 °C 0 hPa Calm     Humidity % 0 mm SolarRadiationWatts/m^2 W/m2 Conditions
00:02 -10.4 °C -11.2 °C 34669.3 hPa Calm     91 % 0 mm 0.0 W/m2 RA
00:07 -10.4 °C -11.2 °C 34669.3 hPa Calm     91 % 0 mm 0.0 W/m2 CLR
00:12 -10.4 °C -11.2 °C 34659.1 hPa Calm     91 % 0 mm 0.0 W/m2 CLR
00:17 -10.4 °C -11.2 °C 34669.3 hPa Calm     91 % 0 mm 0.0 W/m2 CLR
00:22 -10.4 °C -11.2 °C 34669.3 hPa Calm     91 % 0 mm 0.0 W/m2 CLR
00:27 -10.4 °C -11.2 °C 34669.3 hPa Calm     91 % 0 mm 0.0 W/m2 CLR
00:32 -10.4 °C -11.2 °C 34669.3 hPa Calm     91 % 0 mm 0.0 W/m2 CLR
00:37 -10.4 °C -11.1 °C 34669.3 hPa SE 6 km/h 6 km/h 92 % 0 mm 0.0 W/m2 CLR
00:42 -10.4 °C -11.2 °C 34669.3 hPa Calm     91 % 0 mm 0.0 W/m2 CLR
00:47 -10.1 °C -10.9 °C 34669.3 hPa Calm     91 % 0 mm 0.0 W/m2 CLR
00:52 -10.4 °C -11.2 °C 34669.3 hPa Calm     91 % 0 mm 0.0 W/m2 CLR
00:57 -10.4 °C -11.2 °C 34669.3 hPa Calm     91 % 0 mm 0.0 W/m2 CLR
01:02 -10.4 °C -11.2 °C 34659.1 hPa Calm     91 % 0 mm 0.0 W/m2 CLR
01:07 -10.4 °C -11.2 °C 34659.1 hPa Calm     91 % 0 mm 0.0 W/m2 CLR
01:12 -10.4 °C -11.2 °C 34659.1 hPa Calm     91 % 0 mm 0.0 W/m2 CLR
01:17 -10.4 °C -11.2 °C 34659.1 hPa Calm     91 % 0 mm 0.0 W/m2 CLR
01:22 -10.4 °C -11.2 °C 34659.1 hPa Calm     91 % 0 mm 0.0 W/m2 CLR
01:27 -10.4 °C -11.2 °C 34659.1 hPa Calm     91 % 0 mm 0.0 W/m2 CLR
01:32 -10.4 °C -11.2 °C 34659.1 hPa Calm     91 % 0 mm 0.0 W/m2 CLR
01:37 -10.4 °C -11.2 °C 34645.6 hPa Calm     91 % 0 mm 0.0 W/m2 CLR
01:42 -10.7 °C -11.5 °C 34645.6 hPa Calm     91 % 0 mm 0.0 W/m2 CLR
01:47 -10.7 °C -11.5 °C 34645.6 hPa Calm     91 % 0 mm 0.0 W/m2 CLR
01:52 -10.7 °C -11.5 °C 34645.6 hPa Calm     91 % 0 mm 0.0 W/m2 CLR
01:57 -10.7 °C -11.5 °C 34645.6 hPa Calm     91 % 0 mm 0.0 W/m2 CLR
02:02 -10.7 °C -11.5 °C 34645.6 hPa Calm     91 % 0 mm 0.0 W/m2 CLR
02:07 -10.7 °C -11.5 °C 34635.4 hPa Calm     91 % 0 mm 0.0 W/m2 CLR
02:12 -11 °C -11.8 °C 34635.4 hPa Calm     91 % 0 mm 0.0 W/m2 CLR
02:17 -11 °C -11.8 °C 34635.4 hPa Calm     91 % 0 mm 0.0 W/m2 CLR
02:22 -11 °C -11.8 °C 34635.4 hPa Calm     91 % 0 mm 0.0 W/m2 CLR
02:27 -11 °C -11.8 °C 34635.4 hPa Calm     91 % 0 mm 0.0 W/m2 CLR
02:32 -11 °C -11.7 °C 34625.2 hPa NW 10.3 km/h 10.3 km/h 92 % 0 mm 0.0 W/m2 CLR
02:37 -11 °C -11.7 °C 34625.2 hPa Calm     92 % 0 mm 0.0 W/m2 CLR
02:42 -10.7 °C -11.4 °C 34635.4 hPa Calm     92 % 0 mm 0.0 W/m2 CLR
02:47 -10.7 °C -11.5 °C 34635.4 hPa Calm     91 % 0 mm 0.0 W/m2 CLR
02:52 -10.7 °C -11.4 °C 34635.4 hPa Calm     92 % 0 mm 0.0 W/m2 CLR
02:57 -10.7 °C -11.4 °C 34645.6 hPa Calm     92 % 0 mm 0.0 W/m2 CLR
03:02 -10.7 °C -11.4 °C 34645.6 hPa Calm     92 % 0 mm 0.0 W/m2 CLR
03:07 -10.7 °C -11.4 °C 34635.4 hPa Calm     92 % 0 mm 0.0 W/m2 CLR
03:12 -10.7 °C -11.4 °C 34635.4 hPa Calm     92 % 0 mm 0.0 W/m2 CLR
03:17 -10.7 °C -11.4 °C 34635.4 hPa Calm     92 % 0 mm 0.0 W/m2 CLR
03:22 -10.7 °C -11.4 °C 34635.4 hPa Calm     92 % 0 mm 0.0 W/m2 CLR
03:27 -11 °C -11.7 °C 34635.4 hPa Calm     92 % 0 mm 0.0 W/m2 CLR
03:32 -11 °C -11.7 °C 34635.4 hPa Calm     92 % 0 mm 0.0 W/m2 CLR
03:37 -11 °C -11.7 °C 34635.4 hPa Calm     92 % 0 mm 0.0 W/m2 CLR
03:42 -11 °C -11.7 °C 34625.2 hPa Calm     92 % 0 mm 0.0 W/m2 CLR
03:47 -11 °C -11.7 °C 34625.2 hPa Calm     92 % 0 mm 0.0 W/m2 CLR
03:52 -11 °C -11.7 °C 34635.4 hPa SE 15 km/h 15 km/h 92 % 0 mm 0.0 W/m2 CLR
03:57 -11 °C -11.7 °C 34635.4 hPa Calm     92 % 0 mm 0.0 W/m2 CLR
04:02 -11 °C -11.6 °C 34635.4 hPa Calm     93 % 0 mm 0.0 W/m2 CLR
04:07 -11 °C -11.7 °C 34635.4 hPa Calm     92 % 0 mm 0.0 W/m2 CLR
04:12 -10.7 °C -11.4 °C 34635.4 hPa Calm     92 % 0 mm 0.0 W/m2 CLR
04:17 -10.7 °C -11.4 °C 34635.4 hPa Calm     92 % 0 mm 0.0 W/m2 CLR
04:22 -11 °C -11.7 °C 34635.4 hPa Calm     92 % 0 mm 0.0 W/m2 CLR
04:27 -11 °C -11.6 °C 34635.4 hPa Calm     93 % 0 mm 0.0 W/m2 CLR
04:32 -11 °C -11.6 °C 34635.4 hPa Calm     93 % 0 mm 0.0 W/m2 CLR
04:37 -11 °C -11.7 °C 34635.4 hPa Calm     92 % 0 mm 0.0 W/m2 CLR
04:42 -11.3 °C -12 °C 34635.4 hPa Calm     92 % 0 mm 0.0 W/m2 CLR
04:47 -11.3 °C -11.9 °C 34635.4 hPa Calm     93 % 0 mm 0.0 W/m2 CLR
04:52 -11.3 °C -11.9 °C 34635.4 hPa Calm     93 % 0 mm 0.0 W/m2 CLR
04:57 -11.3 °C -11.9 °C 34635.4 hPa Calm     93 % 0 mm 0.0 W/m2 CLR
05:02 -11.3 °C -12 °C 34635.4 hPa Calm     92 % 0 mm 0.0 W/m2 CLR
05:07 -11.3 °C -12 °C 34635.4 hPa Calm     92 % 0 mm 0.0 W/m2 CLR
05:12 -11.6 °C -12.3 °C 34635.4 hPa Calm     92 % 0 mm 0.0 W/m2 CLR
05:18 -11.3 °C -12 °C 34635.4 hPa Calm     92 % 0 mm 0.0 W/m2 CLR
05:23 -11.6 °C -12.3 °C 34635.4 hPa Calm     92 % 0 mm 0.0 W/m2 CLR
05:28 -11.6 °C -12.3 °C 34645.6 hPa Calm     92 % 0 mm 0.0 W/m2 CLR
05:33 -11.6 °C -12.3 °C 34645.6 hPa Calm     92 % 0 mm 0.0 W/m2 CLR
05:38 -11.6 °C -12.2 °C 34645.6 hPa Calm     93 % 0 mm 0.0 W/m2 CLR
05:43 -11.6 °C -12.2 °C 34635.4 hPa Calm     93 % 0 mm 0.0 W/m2 CLR
05:48 -11.9 °C -12.6 °C 34635.4 hPa Calm     93 % 0 mm 0.0 W/m2 CLR
05:53 -11.9 °C -12.6 °C 34635.4 hPa Calm     93 % 0 mm 0.0 W/m2 CLR
05:58 -11.9 °C -12.6 °C 34645.6 hPa Calm     93 % 0 mm 0.0 W/m2 CLR
06:03 -11.9 °C -12.6 °C 34645.6 hPa Calm     93 % 0 mm 0.0 W/m2 CLR
06:08 -11.9 °C -12.6 °C 34645.6 hPa Calm     93 % 0 mm 0.0 W/m2 CLR
06:13 -12.2 °C -12.9 °C 34645.6 hPa Calm     92 % 0 mm 0.0 W/m2 CLR
06:18 -12.2 °C -12.9 °C 34645.6 hPa Calm     92 % 0 mm 0.0 W/m2 CLR
06:23 -12.2 °C -12.9 °C 34645.6 hPa Calm     92 % 0 mm 0.0 W/m2 CLR
06:28 -12.2 °C -12.8 °C 34635.4 hPa Calm     93 % 0 mm 0.0 W/m2 CLR
06:33 -12.2 °C -12.9 °C 34645.6 hPa Calm     92 % 0 mm 0.0 W/m2 CLR
06:38 -12.2 °C -12.9 °C 34645.6 hPa Calm     92 % 0 mm 0.0 W/m2 CLR
06:43 -12.2 °C -12.9 °C 34645.6 hPa Calm     92 % 0 mm 0.0 W/m2 CLR
06:48 -12.2 °C -12.8 °C 34645.6 hPa Calm     93 % 0 mm 0.0 W/m2 CLR
06:53 -12.2 °C -12.8 °C 34645.6 hPa Calm     93 % 0 mm 0.0 W/m2 CLR
06:58 -12.2 °C -12.8 °C 34645.6 hPa Calm     93 % 0 mm 0.0 W/m2 CLR
07:03 -12.2 °C -12.8 °C 34645.6 hPa Calm     93 % 0 mm 0.0 W/m2 CLR
07:08 -11.9 °C -12.6 °C 34645.6 hPa Calm     93 % 0 mm 0.0 W/m2 CLR
07:13 -11.6 °C -12.2 °C 34645.6 hPa Calm     93 % 0 mm 0.0 W/m2 CLR
07:18 -11.6 °C -12.2 °C 34645.6 hPa Calm     93 % 0 mm 0.0 W/m2 CLR
07:23 -11.6 °C -12.2 °C 34659.1 hPa Calm     93 % 0 mm 0.0 W/m2 CLR
07:28 -11.3 °C -11.9 °C 34659.1 hPa Calm     93 % 0 mm 0.0 W/m2 CLR
07:33 -11.3 °C -11.9 °C 34659.1 hPa Calm     93 % 0 mm 0.0 W/m2 CLR
07:38 -11.3 °C -11.9 °C 34659.1 hPa Calm     93 % 0 mm 0.0 W/m2 OVC
07:43 -11.3 °C -11.9 °C 34659.1 hPa Calm     93 % 0 mm 0.0 W/m2 OVC
07:48 -11.3 °C -11.9 °C 34659.1 hPa Calm     93 % 0 mm 0.0 W/m2 OVC
07:53 -11.3 °C -11.9 °C 34659.1 hPa Calm     93 % 0 mm 0.0 W/m2 OVC
07:58 -11 °C -11.6 °C 34659.1 hPa Calm     93 % 0 mm 0.0 W/m2 OVC
08:03 -11 °C -11.6 °C 34659.1 hPa Calm     93 % 0 mm 7.0 W/m2 BKN
08:08 -11 °C -11.6 °C 34659.1 hPa Calm     93 % 0 mm 7.0 W/m2 BKN
08:13 -11 °C -11.6 °C 34669.3 hPa Calm     93 % 0 mm 7.0 W/m2 BKN
08:18 -11 °C -11.6 °C 34659.1 hPa Calm     93 % 0 mm 9.0 W/m2 BKN
08:23 -11 °C -11.6 °C 34669.3 hPa Calm     93 % 0 mm 9.0 W/m2 BKN
08:28 -10.7 °C -11.3 °C 34669.3 hPa Calm     93 % 0 mm 9.0 W/m2 BKN
08:33 -10.7 °C -11.3 °C 34669.3 hPa Calm     93 % 0 mm 11.0 W/m2 BKN
08:38 -10.7 °C -11.3 °C 34669.3 hPa Calm     93 % 0 mm 12.0 W/m2 BKN
08:43 -10.7 °C -11.3 °C 34669.3 hPa Calm     93 % 0 mm 14.0 W/m2 BKN
08:48 -11 °C -11.6 °C 34669.3 hPa Calm     93 % 0 mm 19.0 W/m2 BKN
08:53 -11 °C -11.6 °C 34669.3 hPa Calm     93 % 0 mm 26.0 W/m2 BKN
08:59 -10.7 °C -11.3 °C 34669.3 hPa Calm     93 % 0 mm 30.0 W/m2 BKN
09:04 -10.7 °C -11.3 °C 34669.3 hPa Calm     93 % 0 mm 37.0 W/m2 BKN
09:06 -10.7 °C -11.3 °C 34669.3 hPa Calm     93 % 0 mm 58.0 W/m2 BKN
09:11 -10.7 °C -11.3 °C 34669.3 hPa Calm     93 % 0 mm 74.0 W/m2 SCT
09:16 -10.7 °C -11.3 °C 34669.3 hPa Calm     93 % 0 mm 83.0 W/m2 FEW
09:21 -10.7 °C -11.3 °C 34682.8 hPa Calm     93 % 0 mm 70.0 W/m2 FEW
09:26 -10.7 °C -11.3 °C 34682.8 hPa Calm     93 % 0 mm 77.0 W/m2 FEW
09:31 -10.7 °C -11.3 °C 34682.8 hPa Calm     93 % 0 mm 83.0 W/m2 FEW
09:36 -10.4 °C -11 °C 34682.8 hPa Calm     93 % 0 mm 120.0 W/m2 CLR
09:41 -10.4 °C -11 °C 34682.8 hPa Calm     93 % 0 mm 76.0 W/m2 CLR
09:46 -10.4 °C -11 °C 34682.8 hPa Calm     93 % 0 mm 81.0 W/m2 CLR
09:51 -10.4 °C -11 °C 34682.8 hPa Calm     93 % 0 mm 121.0 W/m2 CLR
09:56 -10.4 °C -10.9 °C 34682.8 hPa Calm     94 % 0 mm 121.0 W/m2 CLR
10:01 -10.4 °C -11 °C 34682.8 hPa Calm     93 % 0 mm 141.0 W/m2 CLR
10:06 -10.1 °C -10.7 °C 34682.8 hPa Calm     93 % 0 mm 151.0 W/m2 CLR
10:11 -10.1 °C -10.6 °C 34682.8 hPa Calm     94 % 0 mm 148.0 W/m2 CLR
10:16 -10.1 °C -10.6 °C 34682.8 hPa Calm     94 % 0 mm 135.0 W/m2 CLR
10:21 -9.8 °C -10.4 °C 34682.8 hPa Calm     93 % 0 mm 171.0 W/m2 CLR
10:26 -9.8 °C -10.3 °C 34682.8 hPa Calm     94 % 0 mm 190.0 W/m2 CLR
10:31 -9.4 °C -9.9 °C 34682.8 hPa Calm     94 % 0 mm 216.0 W/m2 CLR
10:36 -9.4 °C -9.9 °C 34682.8 hPa Calm     94 % 0 mm 216.0 W/m2 CLR
10:41 -9.4 °C -9.9 °C 34682.8 hPa Calm     94 % 0 mm 241.0 W/m2 CLR
10:46 -9.4 °C -9.9 °C 34682.8 hPa Calm     94 % 0 mm 244.0 W/m2 CLR
10:51 -9.1 °C -9.8 °C 34682.8 hPa Calm     93 % 0 mm 244.0 W/m2 CLR
10:56 -9.1 °C -9.8 °C 34682.8 hPa Calm     93 % 0 mm 255.0 W/m2 CLR
11:01 -9.1 °C -9.8 °C 34682.8 hPa Calm     93 % 0 mm 260.0 W/m2 CLR
11:06 -9.1 °C -9.8 °C 34682.8 hPa Calm     93 % 0 mm 253.0 W/m2 CLR
11:11 -8.8 °C -9.4 °C 34682.8 hPa Calm   0.3 km/h 93 % 0 mm 287.0 W/m2 CLR
11:16 -8.8 °C -9.4 °C 34682.8 hPa Calm     93 % 0 mm 285.0 W/m2 CLR
11:21 -8.8 °C -9.6 °C 34682.8 hPa Calm     92 % 0 mm 287.0 W/m2 CLR
11:26 -8.5 °C -9.3 °C 34682.8 hPa Calm     92 % 0 mm 260.0 W/m2 CLR
11:31 -8.2 °C -8.9 °C 34682.8 hPa NW 6 km/h 6 km/h 92 % 0 mm 299.0 W/m2 CLR
11:36 -8.2 °C -8.9 °C 34682.8 hPa Calm     92 % 0 mm 673.0 W/m2 CLR
11:41 -8.2 °C -9.1 °C 34682.8 hPa NNW 3.1 km/h   91 % 0 mm 399.0 W/m2 CLR
11:46 -7.9 °C -8.8 °C 34682.8 hPa Calm     90 % 0 mm 605.0 W/m2 CLR
11:51 -7.9 °C -8.9 °C 34682.8 hPa Calm     89 % 0 mm 626.0 W/m2 CLR
11:56 -7.6 °C -8.8 °C 34669.3 hPa Calm     87 % 0 mm 628.0 W/m2 CLR
12:01 -7.6 °C -8.9 °C 34669.3 hPa NNW 6 km/h 6 km/h 86 % 0 mm 633.0 W/m2 CLR
12:06 -7.6 °C -9 °C 34669.3 hPa NNW 3.1 km/h 3.1 km/h 85 % 0 mm 642.0 W/m2 CLR
12:11 -7.6 °C -9.3 °C 34669.3 hPa NW 6 km/h 6 km/h 82 % 0 mm 649.0 W/m2 CLR
12:16 -7.3 °C -9.1 °C 34659.1 hPa NW 6 km/h 6 km/h 82 % 0 mm 656.0 W/m2 CLR
12:21 -7.3 °C -9.2 °C 34659.1 hPa NNW 12.9 km/h 12.9 km/h 80 % 0 mm 664.0 W/m2 CLR
12:27 -7 °C -8.9 °C 34659.1 hPa NW 15.6 km/h 15.6 km/h 80 % 0 mm 671.0 W/m2 CLR
12:31 -7 °C -8.9 °C 34659.1 hPa NNW 11.9 km/h 11.9 km/h 80 % 0 mm 679.0 W/m2 CLR
12:36 -7 °C -9.2 °C 34659.1 hPa NW 15 km/h 15 km/h 78 % 0 mm 682.0 W/m2 CLR
12:37 -7 °C -9.2 °C 34659.1 hPa NW 15 km/h 15 km/h 78 % 0 mm 682.0 W/m2 CLR
12:42 -6.7 °C -8.8 °C 34645.6 hPa NNW 20.9 km/h 20.9 km/h 78 % 0 mm 687.0 W/m2 CLR
12:47 -6.7 °C -9 °C 34645.6 hPa WNW 26.9 km/h 26.9 km/h 77 % 0 mm 693.0 W/m2 CLR
12:52 -6.7 °C -9 °C 34645.6 hPa NW 10.3 km/h 10.3 km/h 77 % 0 mm 696.0 W/m2 CLR
12:57 -6.7 °C -9 °C 34645.6 hPa NNW 20.9 km/h 20.9 km/h 77 % 0 mm 703.0 W/m2 CLR
13:02 -6.7 °C -9.1 °C 34645.6 hPa North 9 km/h 9 km/h 76 % 0 mm 707.0 W/m2 CLR
13:07 -6.3 °C -8.9 °C 34645.6 hPa North 20.9 km/h 20.9 km/h 75 % 0 mm 714.0 W/m2 CLR
13:12 -6.3 °C -9 °C 34645.6 hPa NNW 11.9 km/h 11.9 km/h 74 % 0 mm 717.0 W/m2 CLR
13:17 -6.3 °C -9 °C 34645.6 hPa NNW 23.8 km/h 23.8 km/h 74 % 0 mm 719.0 W/m2 CLR
13:22 -6.1 °C -8.8 °C 34645.6 hPa NNW 15.6 km/h 15.6 km/h 73 % 0 mm 721.0 W/m2 CLR
13:27 -6.1 °C -8.8 °C 34635.4 hPa North 17.9 km/h 17.9 km/h 73 % 0 mm 722.0 W/m2 CLR
13:32 -6.1 °C -8.9 °C 34635.4 hPa NNW 20.9 km/h 20.9 km/h 72 % 0 mm 724.0 W/m2 CLR
13:37 -6.1 °C -8.9 °C 34635.4 hPa WNW 11.9 km/h 11.9 km/h 72 % 0 mm 728.0 W/m2 CLR
13:42 -6.1 °C -8.9 °C 34635.4 hPa West 9 km/h 9 km/h 72 % 0 mm 728.0 W/m2 CLR
13:47 -5.7 °C -8.8 °C 34635.4 hPa NNE 15 km/h 15 km/h 71 % 0 mm 729.0 W/m2 CLR
13:52 -5.7 °C -8.9 °C 34625.2 hPa NW 9 km/h 9 km/h 70 % 0 mm 729.0 W/m2 CLR
13:57 -5.4 °C -8.7 °C 34625.2 hPa NNW 20.8 km/h 20.8 km/h 69 % 0 mm 728.0 W/m2 CLR
14:02 -5.4 °C -8.7 °C 34625.2 hPa NNW 15 km/h 15 km/h 69 % 0 mm 724.0 W/m2 CLR
14:07 -5.4 °C -8.8 °C 34625.2 hPa NW 15 km/h 15 km/h 68 % 0 mm 726.0 W/m2 CLR
14:12 -5.1 °C -8.7 °C 34611.7 hPa North 23.8 km/h 23.8 km/h 67 % 0 mm 724.0 W/m2 CLR
14:17 -5.1 °C -8.8 °C 34611.7 hPa NNW 11.9 km/h 11.9 km/h 66 % 0 mm 722.0 W/m2 CLR
14:22 -5.1 °C -8.8 °C 34611.7 hPa NNW 20.9 km/h 20.9 km/h 66 % 0 mm 721.0 W/m2 CLR
14:27 -4.8 °C -8.6 °C 34611.7 hPa North 12.9 km/h 12.9 km/h 66 % 0 mm 717.0 W/m2 CLR
14:32 -4.8 °C -8.7 °C 34611.7 hPa Calm     65 % 0 mm 717.0 W/m2 CLR
14:37 -4.8 °C -8.8 °C 34611.7 hPa NW 9 km/h 9 km/h 64 % 0 mm 712.0 W/m2 CLR
14:42 -4.5 °C -8.4 °C 34601.5 hPa Calm     65 % 0 mm 708.0 W/m2 CLR
14:47 -4.5 °C -8.5 °C 34601.5 hPa NW 23.8 km/h 23.8 km/h 64 % 0 mm 705.0 W/m2 CLR
14:52 -4.2 °C -8.2 °C 34601.5 hPa NNW 2.6 km/h   64 % 0 mm 700.0 W/m2 CLR
14:57 -4.2 °C -8.5 °C 34591.4 hPa NW 9 km/h 9 km/h 62 % 0 mm 696.0 W/m2 CLR
15:02 -4.2 °C -8.5 °C 34591.4 hPa NW 15 km/h 15 km/h 62 % 0 mm 689.0 W/m2 CLR
15:07 -4.2 °C -8.7 °C 34591.4 hPa NNW 23.8 km/h 23.8 km/h 61 % 0 mm 686.0 W/m2 CLR
15:12 -4.2 °C -8.7 °C 34591.4 hPa WNW 9 km/h   61 % 0 mm 679.0 W/m2 CLR
15:17 -3.9 °C -8.7 °C 34591.4 hPa WNW 20.9 km/h 20.9 km/h 59 % 0 mm 671.0 W/m2 CLR
15:22 -3.9 °C -8.8 °C 34591.4 hPa NW 20.9 km/h 20.9 km/h 58 % 0 mm 664.0 W/m2 CLR
15:27 -3.9 °C -8.5 °C 34591.4 hPa West 23.8 km/h 23.8 km/h 60 % 0 mm 656.0 W/m2 CLR
15:32 -3.9 °C -8.7 °C 34577.8 hPa West 20.9 km/h 20.9 km/h 59 % 0 mm 652.0 W/m2 CLR
15:37 -3.9 °C -8.9 °C 34577.8 hPa Calm     57 % 0 mm 647.0 W/m2 CLR
15:42 -3.6 °C -8.7 °C 34577.8 hPa WNW 10.3 km/h 10.3 km/h 57 % 0 mm 638.0 W/m2 CLR
15:47 -3.3 °C -8.5 °C 34577.8 hPa WNW 10.3 km/h 10.3 km/h 56 % 0 mm 628.0 W/m2 CLR
15:52 -3.6 °C -9.1 °C 34567.7 hPa West 20.9 km/h 20.9 km/h 54 % 0 mm 619.0 W/m2 CLR
15:57 -3.6 °C -9.1 °C 34567.7 hPa West 17.9 km/h 17.9 km/h 54 % 0 mm 610.0 W/m2 CLR
16:02 -3.6 °C -9.1 °C 34567.7 hPa WNW 18.2 km/h 18.2 km/h 54 % 0 mm 601.0 W/m2 CLR
16:07 -3.6 °C -9.5 °C 34567.7 hPa West 9 km/h   52 % 0 mm 591.0 W/m2 CLR
16:12 -3.6 °C -9.3 °C 34567.7 hPa Calm     53 % 0 mm 584.0 W/m2 CLR
16:17 -3.6 °C -9.5 °C 34567.7 hPa Calm     52 % 0 mm 571.0 W/m2 CLR
16:22 -3.3 °C -9.3 °C 34567.7 hPa North 10.3 km/h 10.3 km/h 51 % 0 mm 538.0 W/m2 CLR
16:27 -3.6 °C -9.9 °C 34567.7 hPa NNE 9 km/h 9 km/h 49 % 0 mm 545.0 W/m2 CLR
16:32 -3.6 °C -9.9 °C 34567.7 hPa Calm     49 % 0 mm 531.0 W/m2 CLR
16:37 -3.3 °C -9.9 °C 34554.1 hPa Calm     48 % 0 mm 522.0 W/m2 CLR
16:42 -2.9 °C -9.6 °C 34554.1 hPa Calm     48 % 0 mm 512.0 W/m2 CLR
16:47 -2.7 °C -9.5 °C 34554.1 hPa Calm     47 % 0 mm 501.0 W/m2 CLR
16:52 -2.7 °C -9.5 °C 34554.1 hPa NW 12.9 km/h 12.9 km/h 47 % 0 mm 485.0 W/m2 CLR
16:57 -2.9 °C -9.9 °C 34554.1 hPa WNW 6 km/h 6 km/h 46 % 0 mm 469.0 W/m2 CLR
17:02 -3.3 °C -10.1 °C 34554.1 hPa NW 9 km/h   47 % 0 mm 455.0 W/m2 CLR
17:07 -3.3 °C -10.4 °C 34554.1 hPa Calm     45 % 0 mm 443.0 W/m2 CLR
17:12 -2.9 °C -10.2 °C 34544 hPa Calm     45 % 0 mm 429.0 W/m2 CLR
17:18 -2.9 °C -10.3 °C 34544 hPa NW 9 km/h   44 % 0 mm 417.0 W/m2 CLR
17:22 -2.9 °C -10.3 °C 34544 hPa Calm     44 % 0 mm 397.0 W/m2 CLR
17:23 -2.9 °C -10.3 °C 34544 hPa Calm     44 % 0 mm 397.0 W/m2 CLR
17:28 -3.3 °C -10.8 °C 34544 hPa NW 20.9 km/h 20.9 km/h 43 % 0 mm 387.0 W/m2 CLR
17:33 -3.3 °C -10.8 °C 34544 hPa Calm     43 % 0 mm 373.0 W/m2 CLR
17:38 -3.3 °C -11 °C 34544 hPa Calm   0.3 km/h 42 % 0 mm 359.0 W/m2 CLR
17:43 -3.3 °C -11.4 °C 34544 hPa NNW 3.1 km/h   40 % 0 mm 346.0 W/m2 CLR
17:48 -3.3 °C -11.2 °C 34544 hPa North 9 km/h 9 km/h 41 % 0 mm 327.0 W/m2 CLR
17:53 -3.3 °C -11.2 °C 34544 hPa NNW 11.9 km/h 11.9 km/h 41 % 0 mm 313.0 W/m2 CLR
17:58 -3.6 °C -11.5 °C 34544 hPa NNW 20.9 km/h 20.9 km/h 41 % 0 mm 299.0 W/m2 CLR
18:03 -3.6 °C -11.7 °C 34544 hPa Calm     40 % 0 mm 285.0 W/m2 CLR
18:08 -3.6 °C -11.9 °C 34544 hPa Calm     39 % 0 mm 271.0 W/m2 CLR
18:13 -3.6 °C -11.9 °C 34544 hPa Calm     39 % 0 mm 253.0 W/m2 CLR
18:18 -3.6 °C -11.7 °C 34544 hPa WNW 9 km/h 9 km/h 40 % 0 mm 237.0 W/m2 CLR
18:23 -3.6 °C -11.5 °C 34544 hPa NNW 15 km/h 15 km/h 41 % 0 mm 220.0 W/m2 CLR
18:28 -3.9 °C -11.8 °C 34544 hPa NW 9 km/h 9 km/h 41 % 0 mm 200.0 W/m2 CLR
18:33 -3.9 °C -11.6 °C 34544 hPa NNW 3.1 km/h 3.1 km/h 42 % 0 mm 186.0 W/m2 CLR
18:38 -4.2 °C -12.1 °C 34544 hPa NW 9 km/h 9 km/h 41 % 0 mm 165.0 W/m2 CLR
18:43 -4.2 °C -11.6 °C 34544 hPa NW 3.1 km/h 3.1 km/h 43 % 0 mm 148.0 W/m2 CLR
18:48 -4.2 °C -11.4 °C 34544 hPa Calm     44 % 0 mm 132.0 W/m2 CLR
18:53 -4.2 °C -11.4 °C 34544 hPa NW 9 km/h 9 km/h 44 % 0 mm 114.0 W/m2 CLR
18:58 -4.5 °C -11.9 °C 34544 hPa NW 9 km/h 9 km/h 43 % 0 mm 98.0 W/m2 CLR
19:03 -4.5 °C -10.7 °C 34544 hPa North 29.8 km/h 29.8 km/h 50 % 0 mm 84.0 W/m2 FEW
19:08 -4.5 °C -10.2 °C 34544 hPa NE 26.9 km/h 26.9 km/h 53 % 0 mm 70.0 W/m2 FEW
19:13 -4.5 °C -9.8 °C 34544 hPa NNE 20.9 km/h 20.9 km/h 55 % 0 mm 54.0 W/m2 SCT
19:18 -4.5 °C -9.8 °C 34544 hPa NE 23.8 km/h 23.8 km/h 55 % 0 mm 46.0 W/m2 SCT
19:23 -4.8 °C -9.8 °C 34544 hPa NE 17.9 km/h 17.9 km/h 57 % 0 mm 35.0 W/m2 BKN
19:28 -4.8 °C -9.7 °C 34544 hPa NE 23.8 km/h 23.8 km/h 58 % 0 mm 26.0 W/m2 BKN
19:33 -5.1 °C -9.8 °C 34544 hPa NE 10.3 km/h 10.3 km/h 59 % 0 mm 19.0 W/m2 BKN
19:38 -5.4 °C -9.9 °C 34544 hPa ENE 15 km/h 15 km/h 60 % 0 mm 16.0 W/m2 BKN
19:43 -5.4 °C -9.9 °C 34544 hPa NE 11.9 km/h 11.9 km/h 60 % 0 mm 12.0 W/m2 BKN
19:48 -5.7 °C -10.1 °C 34544 hPa ENE 15 km/h 15 km/h 61 % 0 mm 9.0 W/m2 BKN
19:53 -5.7 °C -10.1 °C 34544 hPa Calm     61 % 0 mm 5.0 W/m2 OVC
19:58 -6.1 °C -10.2 °C 34544 hPa Calm     62 % 0 mm 0.0 W/m2 OVC
20:03 -6.3 °C -10.6 °C 34554.1 hPa East 7.7 km/h 7.7 km/h 62 % 0 mm 0.0 W/m2 CLR
20:08 -6.3 °C -10.6 °C 34554.1 hPa East 20.9 km/h 20.9 km/h 62 % 0 mm 0.0 W/m2 CLR
20:13 -6.7 °C -10.8 °C 34554.1 hPa East 11.9 km/h   62 % 0 mm 0.0 W/m2 CLR
20:18 -7 °C -11.2 °C 34554.1 hPa Calm     62 % 0 mm 0.0 W/m2 CLR
20:23 -7 °C -11 °C 34554.1 hPa East 17.9 km/h 17.9 km/h 63 % 0 mm 0.0 W/m2 CLR
20:28 -7.3 °C -11.3 °C 34554.1 hPa Calm     63 % 0 mm 0.0 W/m2 CLR
20:33 -7.6 °C -11.4 °C 34554.1 hPa Calm     64 % 0 mm 0.0 W/m2 CLR
20:38 -7.6 °C -11.4 °C 34554.1 hPa Calm     64 % 0 mm 0.0 W/m2 CLR
20:43 -7.9 °C -11.7 °C 34554.1 hPa Calm     64 % 0 mm 0.0 W/m2 CLR
20:48 -7.9 °C -11.6 °C 34567.7 hPa Calm     65 % 0 mm 0.0 W/m2 CLR
20:53 -8.2 °C -11.6 °C 34554.1 hPa Calm     67 % 0 mm 0.0 W/m2 CLR
20:58 -8.5 °C -11.9 °C 34567.7 hPa Calm     67 % 0 mm 0.0 W/m2 CLR
21:03 -8.5 °C -11.8 °C 34567.7 hPa Calm     68 % 0 mm 0.0 W/m2 CLR
21:08 -8.8 °C -12 °C 34567.7 hPa Calm     69 % 0 mm 0.0 W/m2 CLR
21:13 -8.8 °C -12 °C 34567.7 hPa Calm     69 % 0 mm 0.0 W/m2 CLR
21:18 -8.8 °C -12 °C 34567.7 hPa Calm     69 % 0 mm 0.0 W/m2 CLR
21:24 -8.8 °C -11.9 °C 34567.7 hPa Calm     70 % 0 mm 0.0 W/m2 CLR
21:29 -9.1 °C -11.9 °C 34567.7 hPa Calm     72 % 0 mm 0.0 W/m2 CLR
21:34 -9.1 °C -11.9 °C 34577.8 hPa Calm     72 % 0 mm 0.0 W/m2 CLR
21:39 -9.1 °C -11.9 °C 34577.8 hPa Calm     72 % 0 mm 0.0 W/m2 CLR
21:44 -9.1 °C -12.1 °C 34577.8 hPa Calm     71 % 0 mm 0.0 W/m2 CLR
21:49 -9.1 °C -11.9 °C 34577.8 hPa Calm     72 % 0 mm 0.0 W/m2 CLR
21:54 -9.1 °C -11.8 °C 34577.8 hPa Calm     73 % 0 mm 0.0 W/m2 CLR
21:59 -9.1 °C -11.7 °C 34577.8 hPa Calm     74 % 0 mm 0.0 W/m2 CLR
22:04 -9.4 °C -12 °C 34577.8 hPa Calm     74 % 0 mm 0.0 W/m2 CLR
22:05 -9.4 °C -12 °C 34577.8 hPa Calm     74 % 0 mm 0.0 W/m2 CLR
22:10 -9.4 °C -11.9 °C 34577.8 hPa Calm     75 % 0 mm 0.0 W/m2 CLR
22:15 -9.4 °C -11.9 °C 34577.8 hPa Calm     75 % 0 mm 0.0 W/m2 CLR
22:20 -9.4 °C -11.8 °C 34577.8 hPa Calm     76 % 0 mm 0.0 W/m2 CLR
22:25 -9.4 °C -11.7 °C 34591.4 hPa Calm     77 % 0 mm 0.0 W/m2 CLR
22:30 -9.8 °C -12.1 °C 34591.4 hPa Calm     76 % 0 mm 0.0 W/m2 CLR
22:35 -9.8 °C -12 °C 34591.4 hPa Calm     77 % 0 mm 0.0 W/m2 CLR
22:40 -9.8 °C -12 °C 34591.4 hPa Calm     77 % 0 mm 0.0 W/m2 CLR
22:45 -9.8 °C -11.8 °C 34591.4 hPa Calm     78 % 0 mm 0.0 W/m2 CLR
22:50 -9.8 °C -11.8 °C 34591.4 hPa Calm     78 % 0 mm 0.0 W/m2 CLR
22:55 -9.8 °C -11.8 °C 34591.4 hPa Calm     79 % 0 mm 0.0 W/m2 CLR
23:00 -9.8 °C -11.8 °C 34591.4 hPa Calm     79 % 0 mm 0.0 W/m2 CLR
23:05 -10.1 °C -11.9 °C 34591.4 hPa Calm     80 % 0 mm 0.0 W/m2 CLR
23:10 -10.1 °C -11.9 °C 34591.4 hPa Calm     80 % 0 mm 0.0 W/m2 CLR
23:15 -10.1 °C -11.8 °C 34591.4 hPa Calm     81 % 0 mm 0.0 W/m2 CLR
23:20 -10.1 °C -11.8 °C 34591.4 hPa Calm     81 % 0 mm 0.0 W/m2 CLR
23:25 -10.1 °C -11.8 °C 34591.4 hPa Calm     81 % 0 mm 0.0 W/m2 CLR
23:30 -10.1 °C -11.7 °C 34591.4 hPa Calm     82 % 0 mm 0.0 W/m2 CLR
23:35 -10.1 °C -11.7 °C 34591.4 hPa Calm     82 % 0 mm 0.0 W/m2 CLR
23:40 -10.1 °C -11.7 °C 34591.4 hPa Calm     82 % 0 mm 0.0 W/m2 CLR
23:45 -10.1 °C -11.7 °C 34591.4 hPa Calm     82 % 0 mm 0.0 W/m2 CLR
23:50 -10.1 °C -11.6 °C 34601.5 hPa Calm     83 % 0 mm 0.0 W/m2 CLR
23:55 -10.1 °C -11.6 °C 34601.5 hPa Calm     84 % 0 mm 0.0 W/m2 CLR
Lo Temps de Massalio
Compliments of Weather Underground - 1.25 mb